(85) Io
ephemeris date magn radius delta ra dec elong phase
Today27 Jun 202613.42.815 AU3.806 AU05h47m+15°39'11.1°4.0°
Opposition22 Jan 202712.53.102 AU2.148 AU08h03m+02°50'162.8°5.4°
(85) Io - 2026-06-27
astro.vanbuitenen.nl


 
-1 year
-1 month
-1 day
Now
+1 day
+1 month
+1 year

The interactive orbit chart above shows the body's path through the solar system and its position at the given date. Green and blue lines are shown perpendicular to the ecliptic plane: Green if the path is above the ecliptic plane, blue if it is below. (Left-click and drag to rotate the view; Right-click and drag to move the view; Use scroll wheel to zoom in our out.)

The orbital elements of Io are:

            e (Eccentricity)                : 0.1929890
            a (Semimajor axis)              : 2.6535067
            i (Inclination)                 : 11.95950
            Ω (Longitude of ascending node) : 203.03594
            ω (Argument of perihelion)      : 122.96267
            M (Mean anomaly)                : 93.83602
            Epoch                           : 2026 Jun 09

            L (Longitude of perihelion)     : 146.57513
            B (Latitude of perihelion)      : 10.01250
            P (Orbital period in years)     : 4.32            
        

The light curve chart below shows the estimated development of the minor planet's magnitude.


The all-sky chart below shows the path of the minor planet over the same period as the light curve. The current position is marked yellow.





The following chart shows the path of the minor planet in the next few days. The field of view is optimized for (~10x50) binoculars and finderscopes.




Ephemerides:
Date       Time       RA (2000)    DEC (2000)    delta   radius  elong  phase   PA    magn
2026-06-27 00:00 UT   05 47 53.5   +15 39 21     3.806    2.815   11.1    4.0   225   13.4 
2026-06-27 17:37 UT   05 49 06.1   +15 38 50     3.806    2.817   11.4    4.1   226   13.5 
2026-06-28 00:00 UT   05 49 32.5   +15 38 38     3.806    2.817   11.5    4.1   227   13.5 
2026-06-29 00:00 UT   05 51 11.3   +15 37 50     3.806    2.819   11.9    4.3   229   13.5 
2026-06-30 00:00 UT   05 52 50.0   +15 36 57     3.805    2.821   12.4    4.4   231   13.5 
2026-07-01 00:00 UT   05 54 28.5   +15 36 00     3.805    2.823   12.8    4.6   232   13.5 
2026-07-02 00:00 UT   05 56 06.8   +15 34 58     3.804    2.824   13.3    4.7   234   13.5 
2026-07-03 00:00 UT   05 57 45.0   +15 33 51     3.803    2.826   13.7    4.9   235   13.5 
2026-07-04 00:00 UT   05 59 23.0   +15 32 40     3.803    2.828   14.2    5.1   237   13.5 
2026-07-05 00:00 UT   06 01 00.8   +15 31 23     3.802    2.830   14.7    5.2   238   13.5 
2026-07-06 00:00 UT   06 02 38.5   +15 30 02     3.800    2.832   15.2    5.4   239   13.5 
2026-07-07 00:00 UT   06 04 16.0   +15 28 37     3.799    2.833   15.6    5.6   241   13.5 
2026-07-08 00:00 UT   06 05 53.2   +15 27 06     3.798    2.835   16.1    5.7   242   13.5 
2026-07-09 00:00 UT   06 07 30.3   +15 25 31     3.796    2.837   16.6    5.9   243   13.6 
2026-07-10 00:00 UT   06 09 07.2   +15 23 52     3.794    2.839   17.1    6.1   244   13.6 
2026-07-11 00:00 UT   06 10 43.9   +15 22 07     3.793    2.841   17.6    6.2   245   13.6 
2026-07-12 00:00 UT   06 12 20.4   +15 20 18     3.791    2.842   18.2    6.4   246   13.6 
2026-07-13 00:00 UT   06 13 56.7   +15 18 24     3.788    2.844   18.7    6.6   247   13.6 
2026-07-14 00:00 UT   06 15 32.7   +15 16 26     3.786    2.846   19.2    6.7   247   13.6 
2026-07-15 00:00 UT   06 17 08.5   +15 14 23     3.784    2.848   19.7    6.9   248   13.6 
2026-07-16 00:00 UT   06 18 44.1   +15 12 16     3.781    2.849   20.2    7.1   249   13.6 
2026-07-17 00:00 UT   06 20 19.5   +15 10 04     3.779    2.851   20.8    7.3   250   13.6 
2026-07-18 00:00 UT   06 21 54.6   +15 07 47     3.776    2.853   21.3    7.4   250   13.6 


    Terminology:
            
    delta:  distance between minor planet and earth in AU
    radius: distance between minor planet and sun in AU
    magn:   magnitude (brightness) estimate    
    ra:     right ascension in hours (24h = 360deg)
    dec:    declination in degrees
    elong:  elongation in degrees (angle sun-earth-minor planet)    
    phase:  phase angle in degrees (angle sun-minor planet-earth)        
    AU:     Astronomical Unit (mean distance between earth and sun: 149597870.7 km
    

Orbital elements provided by the MPC (Minor Planet Center).
Calculations by a modified version of AAPlus, a C# implementation of the AA+ project by PJ Naughter from the algorithms presented in the book "Astronomical Algorithms" by Jean Meeus.
NGC2000 dso catalog and star labels from VizieR as provided by the Strasbourg astronomical Data Center.
Tycho2 catalog from the ESO archive.